Date String (YYYY-MM-DD hh:mm:ss) UTC,Instrument flags,Ambient pressure (hPa),Sample flow (lpm),Bypass flow (lpm),Sample temperature (°C),Ambient temperature (°C),ASC tube jacket temperature (°C),LED temperature (°C),Box temperature (°C),Sample RH (%),Span deviation,Mass concentration (μg/m³),Mass concentration (μg/m³),Mass concentration (μg/m³)
DateTimeUTC,F1_M11,P_M11,Q1_M11,Q2_M11,T1_M11,T2_M11,T3_M11,T4_M11,T5_M11,U1_M11,ZSPAN_M11,X0_M11,X2_M11,X1_M11
2022-02-05 21:00:00,,0824.9,4.98,0.00,22.9,22.3,00.0,31.7,24.8,07.8,0000.0,0002.12,0000.57,0000.41
2022-02-05 21:01:00,,0824.9,5.02,0.00,22.9,22.3,00.0,31.7,24.8,07.5,0000.0,0002.07,0000.55,0000.42
2022-02-05 21:02:00,,0824.8,5.00,0.00,22.9,22.3,00.0,31.8,24.8,07.4,0000.0,0002.01,0000.53,0000.42
2022-02-05 21:03:00,,0824.8,4.99,0.00,22.9,22.2,00.0,31.8,24.8,07.1,0000.0,0002.00,0000.53,0000.42
2022-02-05 21:04:00,,0824.8,4.99,0.00,22.9,22.2,00.0,31.8,24.8,07.2,0000.0,0001.96,0000.52,0000.41
2022-02-05 21:05:00,,0824.7,5.00,0.00,22.9,22.2,00.0,31.8,24.7,07.0,0000.0,0001.92,0000.50,0000.41
2022-02-05 21:06:00,,0824.9,5.00,0.00,22.9,22.2,00.0,31.8,24.7,07.3,0000.0,0002.01,0000.52,0000.41
2022-02-05 21:07:00,,0824.7,5.00,0.00,22.9,22.2,00.0,31.8,24.7,07.2,0000.0,0001.38,0000.55,0000.42
2022-02-05 21:08:00,,0824.7,4.99,0.00,22.9,22.2,00.0,31.8,24.7,07.5,0000.0,0001.33,0000.57,0000.43
2022-02-05 21:09:00,,0824.8,5.01,0.00,22.9,22.2,00.0,31.8,24.6,07.5,0000.0,0001.32,0000.57,0000.43
2022-02-05 21:10:00,,0824.9,5.00,0.00,22.9,22.2,00.0,31.8,24.6,07.0,0000.0,0001.36,0000.61,0000.44
2022-02-05 21:11:00,,0824.9,4.99,0.00,22.9,22.2,00.0,31.8,24.6,07.5,0000.0,0001.34,0000.61,0000.45
2022-02-05 21:12:00,,0824.8,5.01,0.00,22.8,22.1,00.0,31.8,24.6,07.2,0000.0,0001.36,0000.62,0000.46
2022-02-05 21:13:00,,0824.9,5.00,0.00,22.8,22.1,00.0,31.8,24.6,07.8,0000.0,0001.38,0000.63,0000.45
2022-02-05 21:14:00,,0824.9,5.00,0.00,22.8,22.1,00.0,31.8,24.5,07.5,0000.0,0001.42,0000.65,0000.46
2022-02-05 21:15:00,,0824.9,5.00,0.00,22.8,22.0,00.0,31.8,24.5,07.0,0000.0,0001.41,0000.65,0000.47
2022-02-05 21:16:00,,0824.9,5.01,0.00,22.8,22.0,00.0,31.8,24.4,07.2,0000.0,0001.41,0000.65,0000.47
2022-02-05 21:17:00,,0824.9,5.01,0.00,22.8,22.0,00.0,31.8,24.5,07.5,0000.0,0001.58,0000.65,0000.48
2022-02-05 21:18:00,,0824.8,5.00,0.00,22.8,22.0,00.0,31.8,24.4,07.6,0000.0,0001.43,0000.62,0000.48
2022-02-05 21:19:00,,0824.7,4.99,0.00,22.8,22.0,00.0,31.8,24.4,07.5,0000.0,0001.46,0000.62,0000.47
2022-02-05 21:20:00,,0824.7,5.02,0.00,22.7,22.0,00.0,31.8,24.4,07.6,0000.0,0001.53,0000.63,0000.47
2022-02-05 21:21:00,,0824.6,4.99,0.00,22.7,22.0,00.0,31.8,24.3,07.4,0000.0,0001.54,0000.62,0000.47
2022-02-05 21:22:00,,0824.7,5.01,0.00,22.7,21.9,00.0,31.8,24.3,07.5,0000.0,0001.59,0000.64,0000.47
2022-02-05 21:23:00,,0824.6,4.99,0.00,22.7,21.9,00.0,31.8,24.3,07.5,0000.0,0001.60,0000.65,0000.47
2022-02-05 21:24:00,,0824.7,5.00,0.00,22.7,21.9,00.0,31.8,24.3,07.8,0000.0,0001.59,0000.64,0000.46
2022-02-05 21:25:00,,0824.6,5.02,0.00,22.6,21.9,00.0,31.8,24.3,07.8,0000.0,0001.51,0000.61,0000.46
2022-02-05 21:26:00,,0824.6,4.99,0.00,22.6,21.9,00.0,31.8,24.3,08.0,0000.0,0001.50,0000.60,0000.46
2022-02-05 21:27:00,,0824.6,5.01,0.00,22.6,21.9,00.0,31.7,24.3,07.9,0000.0,0001.56,0000.63,0000.46
2022-02-05 21:28:00,,0824.6,5.00,0.00,22.6,21.9,00.0,31.7,24.3,07.8,0000.0,0001.33,0000.63,0000.46
2022-02-05 21:29:00,,0824.6,4.99,0.00,22.6,21.9,00.0,31.7,24.3,07.6,0000.0,0001.01,0000.64,0000.47
2022-02-05 21:30:00,,0824.5,5.02,0.00,22.6,22.0,00.0,31.7,24.3,07.7,0000.0,0000.95,0000.64,0000.48
2022-02-05 21:31:00,,0824.5,4.99,0.00,22.6,22.0,00.0,31.7,24.2,07.7,0000.0,0000.99,0000.67,0000.49
2022-02-05 21:32:00,,0824.5,4.99,0.00,22.6,22.0,00.0,31.7,24.2,08.2,0000.0,0000.99,0000.66,0000.49
2022-02-05 21:33:00,,0824.6,5.01,0.00,22.6,22.0,00.0,31.7,24.3,07.8,0000.0,0000.98,0000.65,0000.49
2022-02-05 21:34:00,,0824.6,4.97,0.00,22.6,21.9,00.0,31.7,24.3,08.7,0000.0,0001.07,0000.68,0000.50
2022-02-05 21:35:00,,0824.5,5.02,0.00,22.6,21.9,00.0,31.7,24.2,08.9,0000.0,0001.07,0000.69,0000.50
2022-02-05 21:36:00,,0824.5,4.99,0.00,22.6,21.9,00.0,31.7,24.2,07.9,0000.0,0001.07,0000.68,0000.50
2022-02-05 21:37:00,,0824.4,5.00,0.00,22.6,21.9,00.0,31.7,24.3,08.4,0000.0,0001.06,0000.68,0000.50
2022-02-05 21:38:00,,0824.4,4.99,0.00,22.6,21.9,00.0,31.7,24.2,08.6,0000.0,0001.03,0000.68,0000.51
2022-02-05 21:39:00,,0824.4,5.02,0.00,22.6,22.0,00.0,31.7,24.3,08.4,0000.0,0001.02,0000.68,0000.51
2022-02-05 21:40:00,,0824.3,5.01,0.00,22.6,21.9,00.0,31.7,24.2,08.5,0000.0,0001.01,0000.68,0000.51
2022-02-05 21:41:00,,0824.4,4.98,0.00,22.6,21.9,00.0,31.7,24.2,08.0,0000.0,0001.06,0000.71,0000.50
2022-02-05 21:42:00,,0824.5,5.00,0.00,22.6,21.9,00.0,31.6,24.3,08.2,0000.0,0001.04,0000.70,0000.49
2022-02-05 21:43:00,,0824.5,5.01,0.00,22.6,21.9,00.0,31.6,24.3,07.8,0000.0,0001.11,0000.68,0000.49
2022-02-05 21:44:00,,0824.5,5.00,0.00,22.5,21.8,00.0,31.6,24.1,07.4,0000.0,0001.21,0000.67,0000.49
2022-02-05 21:45:00,,0824.5,5.00,0.00,22.5,21.8,00.0,31.6,24.1,08.0,0000.0,0001.13,0000.65,0000.49
2022-02-05 21:46:00,,0824.4,5.00,0.00,22.5,21.8,00.0,31.6,24.1,08.4,0000.0,0001.11,0000.65,0000.49
2022-02-05 21:47:00,,0824.4,5.00,0.00,22.5,21.8,00.0,31.6,24.1,07.8,0000.0,0001.11,0000.65,0000.49
2022-02-05 21:48:00,,0824.5,5.00,0.00,22.5,21.8,00.0,31.6,24.1,08.1,0000.0,0001.13,0000.66,0000.49
2022-02-05 21:49:00,,0824.4,4.99,0.00,22.5,21.8,00.0,31.6,24.1,08.9,0000.0,0001.16,0000.66,0000.49
2022-02-05 21:50:00,,0824.3,5.01,0.00,22.5,21.8,00.0,31.6,24.0,08.5,0000.0,0001.15,0000.65,0000.50
2022-02-05 21:51:00,,0824.3,4.99,0.00,22.5,21.8,00.0,31.6,24.1,08.5,0000.0,0001.14,0000.64,0000.50
2022-02-05 21:52:00,,0824.3,5.01,0.00,22.5,21.8,00.0,31.6,24.0,08.3,0000.0,0001.11,0000.63,0000.51
2022-02-05 21:53:00,,0824.3,4.99,0.00,22.5,21.8,00.0,31.6,24.1,08.2,0000.0,0001.10,0000.63,0000.51
2022-02-05 21:54:00,,0824.4,5.00,0.00,22.4,21.8,00.0,31.6,24.1,08.1,0000.0,0001.01,0000.62,0000.52
2022-02-05 21:55:00,,0824.5,5.00,0.00,22.4,21.7,00.0,31.5,24.0,07.9,0000.0,0000.84,0000.62,0000.52
2022-02-05 21:56:00,,0824.5,4.99,0.00,22.4,21.7,00.0,31.5,24.0,07.9,0000.0,0000.87,0000.62,0000.52
2022-02-05 21:57:00,,0824.6,5.00,0.00,22.4,21.7,00.0,31.5,24.0,07.8,0000.0,0000.90,0000.63,0000.52
2022-02-05 21:58:00,,0824.5,5.00,0.00,22.4,21.7,00.0,31.5,24.0,07.9,0000.0,0000.95,0000.65,0000.52
2022-02-05 21:59:00,,0824.6,4.99,0.00,22.4,21.7,00.0,31.5,24.0,07.8,0000.0,0000.98,0000.67,0000.52
